Weather History for Fairfield, CA

Change the Weather History Date:

Saturday, April 6, 2013

  Actual Average Record
Temperature  
Mean Temperature 60 °F -  
Max Temperature 68 °F 64 °F 78 °F (2009)
Min Temperature 52 °F 43 °F 32 °F (2012)
Degree Days  
Heating Degree Days 6    
Growing Degree Days 10 (Base 50)    
Moisture  
Dew Point 55 °F    
Average Humidity 95    
Maximum Humidity 100    
Minimum Humidity 66    
Precipitation  
Precipitation 0.00 in - - ()
Sea Level Pressure  
Sea Level Pressure 30.16 in    
Wind  
Wind Speed 9 mph (SW)    
Max Wind Speed 17 mph    
Max Gust Speed 24 mph    
Visibility 10 miles    
Events Rain    
Averages and records for this station are not official NWS values.
T = Trace of Precipitation, MM = Missing Value Source: NWS Daily Summary

Daily Weather History Graph

Daily Weather History Graph

Search for Another Location

Airport:

Trip Planner

Search our weather history database for the weather conditions in past years. The results will help you decide how hot, cold, wet, or windy it might be!

Date:

Astronomy

Apr. 06, 2013 Rise Set
Actual Time 6:44 AM PDT 7:36 PM PDT
Civil Twilight 6:17 AM PDT 8:02 PM PDT
Nautical Twilight 5:46 AM PDT 8:34 PM PDT
Astronomical Twilight 5:13 AM PDT 9:07 PM PDT
Moon 4:28 AM PDT (4/6) 4:13 PM PDT (4/6)
Length of Visible Light 13h 45m
Length of Day
12h 51m
Waning Crescent, 14% of the Moon is Illuminated
Apr 6
Waning Crescent
Apr 10
New
Apr 18
First Quarter
Apr 25
Full
May 2
Last Quarter

Hourly Weather History & Observations

Time (PDT) Temp. Dew Point Humidity Pressure Visibility Wind Dir Wind Speed Gust Speed Precip Events Conditions
12:58 AM 54.0 °F 53.6 °F 99% 30.17 in 10.0 mi WSW 10.4 mph - N/A   Mostly Cloudy
1:58 AM 53.2 °F 53.1 °F 99% 30.18 in 10.0 mi WSW 11.5 mph - N/A   Overcast
2:53 AM 53.6 °F 53.6 °F 100% 30.15 in 10.0 mi SW 6.9 mph - N/A Rain Light Rain
2:58 AM 53.4 °F 53.4 °F 100% 30.17 in 10.0 mi SW 6.9 mph - 0.00 in Rain Light Rain
3:02 AM 53.6 °F 53.6 °F 100% 30.15 in 10.0 mi SW 8.1 mph - N/A   Scattered Clouds
3:58 AM 52.2 °F 52.2 °F 100% 30.16 in 10.0 mi SW 8.1 mph - 0.00 in   Partly Cloudy
4:33 AM 53.6 °F 53.6 °F 100% 30.13 in 10.0 mi SSW 8.1 mph - N/A   Overcast
4:43 AM 53.6 °F 53.6 °F 100% 30.14 in 10.0 mi SW 9.2 mph - N/A   Overcast
4:48 AM 53.6 °F 53.6 °F 100% 30.14 in 10.0 mi SW 9.2 mph - N/A   Overcast
4:58 AM 53.8 °F 53.6 °F 99% 30.16 in 10.0 mi SW 6.9 mph - N/A   Overcast
5:23 AM 53.6 °F 53.6 °F 100% 30.15 in 10.0 mi WSW 5.8 mph - N/A   Overcast
5:58 AM 54.1 °F 54.0 °F 99% 30.17 in 10.0 mi SW 10.4 mph - N/A   Overcast
6:07 AM 53.6 °F 53.6 °F 100% 30.15 in 10.0 mi SW 9.2 mph - N/A Rain Light Rain
6:17 AM 53.6 °F 53.6 °F 100% 30.14 in 10.0 mi SW 6.9 mph - N/A   Overcast
6:52 AM 53.6 °F 53.6 °F 100% 30.15 in 10.0 mi SW 5.8 mph - N/A   Overcast
6:58 AM 53.6 °F 53.6 °F 100% 30.18 in 10.0 mi SW 5.8 mph - 0.00 in   Overcast
7:28 AM 53.6 °F 53.6 °F 100% 30.16 in 10.0 mi SSW 4.6 mph - N/A   Overcast
7:58 AM 55.4 °F 55.4 °F 100% 30.18 in 10.0 mi WSW 5.8 mph - N/A   Overcast
8:08 AM 55.4 °F 55.4 °F 100% 30.17 in 10.0 mi WSW 5.8 mph - N/A   Overcast
8:28 AM 55.4 °F 55.4 °F 100% 30.17 in 10.0 mi WSW 6.9 mph - N/A   Overcast
8:43 AM 55.4 °F 55.4 °F 100% 30.17 in 10.0 mi SW 8.1 mph - N/A   Overcast
8:58 AM 56.1 °F 55.8 °F 99% 30.19 in 10.0 mi SW 5.8 mph - N/A   Overcast
9:58 AM 57.7 °F 57.4 °F 99% 30.19 in 10.0 mi SW 8.1 mph - N/A   Overcast
10:08 AM 57.2 °F 57.2 °F 100% 30.17 in 10.0 mi SW 9.2 mph - N/A   Overcast
10:13 AM 57.2 °F 57.2 °F 100% 30.17 in 10.0 mi WSW 8.1 mph - N/A   Overcast
10:18 AM 57.2 °F 57.2 °F 100% 30.17 in 10.0 mi SW 5.8 mph - N/A   Overcast
10:23 AM 57.2 °F 57.2 °F 100% 30.17 in 10.0 mi SW 6.9 mph - N/A   Overcast
10:58 AM 58.5 °F 58.1 °F 99% 30.19 in 10.0 mi WSW 8.1 mph - N/A   Overcast
11:43 AM 59.0 °F 59.0 °F 100% 30.18 in 10.0 mi WSW 6.9 mph - N/A   Overcast
11:48 AM 59.0 °F 59.0 °F 100% 30.19 in 10.0 mi WSW 6.9 mph - N/A   Overcast
11:53 AM 59.0 °F 59.0 °F 100% 30.18 in 10.0 mi SW 6.9 mph - N/A   Overcast
11:58 AM 59.2 °F 58.8 °F 99% 30.21 in 10.0 mi WSW 6.9 mph - N/A   Overcast
12:03 PM 59.0 °F 59.0 °F 100% 30.19 in 10.0 mi West 6.9 mph - N/A   Overcast
12:58 PM 63.3 °F 59.2 °F 86% 30.19 in 10.0 mi WSW 12.7 mph - N/A   Mostly Cloudy
1:03 PM 64.4 °F 59.0 °F 83% 30.17 in 10.0 mi WSW 11.5 mph - N/A   Mostly Cloudy
1:58 PM 65.7 °F 58.6 °F 78% 30.16 in 10.0 mi WSW 12.7 mph - N/A   Partly Cloudy
2:58 PM 66.9 °F 57.0 °F 70% 30.14 in 10.0 mi WSW 13.8 mph - N/A   Partly Cloudy
3:58 PM 67.8 °F 56.1 °F 66% 30.14 in 10.0 mi WSW 17.3 mph - N/A   Scattered Clouds
4:58 PM 66.4 °F 56.5 °F 70% 30.12 in 10.0 mi West 16.1 mph - N/A   Clear
5:58 PM 63.7 °F 57.0 °F 79% 30.12 in 10.0 mi WSW 17.3 mph 24.2 mph N/A   Clear
6:58 PM 61.5 °F 52.5 °F 72% 30.11 in 10.0 mi WSW 15.0 mph - N/A   Clear
7:58 PM 58.5 °F 52.9 °F 82% 30.12 in 10.0 mi West 16.1 mph - N/A   Clear
8:58 PM 55.4 °F 53.2 °F 92% 30.13 in 10.0 mi SW 15.0 mph - N/A   Clear
9:58 PM 54.1 °F 53.4 °F 97% 30.14 in 10.0 mi SW 11.5 mph - N/A   Clear
10:58 PM 54.1 °F 53.4 °F 97% 30.15 in 10.0 mi SW 16.1 mph - N/A   Overcast
11:58 PM 53.4 °F 52.9 °F 98% 30.16 in 10.0 mi SSW 8.1 mph - N/A   Clear